START_TIME,STEP,MOV.,P1,t_acc.,E44,t_acc.,A3,t_acc.,P10,t_acc.
1980-11-14 09:04:08.200 ,0,0,,0,,0,,0,,0
1980-11-14 09:04:09.400 ,0,0,,0,,0,,0,,0
1980-11-14 09:04:10.600 ,0,0,,0,,0,,0,,0
1980-11-14 09:04:11.800 ,0,0,,0,,0,,0,,0
1980-11-14 09:04:13.000 ,0,0,,0,,0,,0,,0
1980-11-14 09:04:14.200 ,0,0,,0,,0,,0,,0
1980-11-14 09:04:15.400 ,0,0,,0,,0,,0,,0
1980-11-14 09:04:16.600 ,0,0,,0,,0,,0,,0
1980-11-14 09:04:17.800 ,0,0,,0,,0,,0,,0
1980-11-14 09:04:19.000 ,0,0,,0,,0,,0,,0
1980-11-14 09:04:20.200 ,0,0,,0,,0,,0,,0
1980-11-14 09:04:21.400 ,0,0,,0,,0,,0,,0
1980-11-14 09:04:22.600 ,0,0,,0,,0,,0,,0
1980-11-14 09:04:23.800 ,0,0,,0,,0,,0,,0
1980-11-14 09:04:25.000 ,0,0,,0,,0,,0,,0
1980-11-14 09:04:26.200 ,0,0,,0,,0,,0,,0
1980-11-14 09:04:27.400 ,0,0,,0,,0,,0,,0
1980-11-14 09:04:28.600 ,0,0,0.,1.2,6.,1.2,0.,1.2,0.,1.2
1980-11-14 09:04:29.800 ,0,0,,0,,0,,0,,0
1980-11-14 09:04:31.000 ,0,0,,0,,0,,0,,0
1980-11-14 09:04:11.800 ,0,0,,0,,0,,0,,0
1980-11-14 09:04:13.000 ,0,0,,0,,0,,0,,0
1980-11-14 09:04:14.200 ,0,0,,0,,0,,0,,0
1980-11-14 09:04:15.400 ,0,0,,0,,0,,0,,0
1980-11-14 09:04:16.600 ,0,0,,0,,0,,0,,0
1980-11-14 09:04:17.800 ,0,0,,0,,0,,0,,0
1980-11-14 09:04:19.000 ,0,0,,0,,0,,0,,0
1980-11-14 09:04:20.200 ,0,0,,0,,0,,0,,0
1980-11-14 09:04:21.400 ,0,0,,0,,0,,0,,0
1980-11-14 09:04:22.600 ,0,0,,0,,0,,0,,0
1980-11-14 09:04:23.800 ,0,0,,0,,0,,0,,0
1980-11-14 09:04:25.000 ,0,0,,0,,0,,0,,0
1980-11-14 09:04:26.200 ,0,0,,0,,0,,0,,0
1980-11-14 09:04:27.400 ,0,0,,0,,0,,0,,0
1980-11-14 09:04:28.600 ,0,0,,0,,0,,0,,0
1980-11-14 09:04:29.800 ,0,0,,0,,0,,0,,0
1980-11-14 09:04:31.000 ,0,0,,0,,0,,0,,0
1980-11-14 09:04:32.200 ,0,0,,0,,0,,0,,0
1980-11-14 09:04:33.400 ,0,0,,0,,0,,0,,0
1980-11-14 09:04:34.600 ,0,0,,0,,0,,0,,0
1980-11-14 09:09:06.400 ,0,0,,0,,0,,0,,0
1980-11-14 09:09:07.600 ,0,0,,0,,0,,0,,0
1980-11-14 09:09:08.800 ,0,0,,0,,0,,0,,0
1980-11-14 09:09:10.000 ,0,0,,0,,0,,0,,0
1980-11-14 09:09:11.200 ,0,0,,0,,0,,0,,0
1980-11-14 09:09:12.400 ,0,0,0.,1.2,3.,1.2,0.,1.2,0.,1.2
1980-11-14 09:09:13.600 ,0,0,0.,1.2,8.,1.2,0.,1.2,0.,1.2
1980-11-14 09:09:14.800 ,0,0,0.,1.2,14.,1.2,0.,1.2,0.,1.2
1980-11-14 09:09:16.000 ,0,0,0.,1.2,9.,1.2,0.,1.2,0.,1.2
1980-11-14 09:09:17.200 ,0,0,0.,1.2,9.,1.2,0.,1.2,0.,1.2
1980-11-14 09:09:18.400 ,0,0,0.,1.2,5.,1.2,0.,1.2,0.,1.2
1980-11-14 09:09:19.600 ,0,0,0.,1.2,10.,1.2,0.,1.2,0.,1.2
1980-11-14 09:09:20.800 ,0,0,1.,1.2,8.,1.2,0.,1.2,0.,1.2
1980-11-14 09:09:22.000 ,0,0,0.,1.2,4.,1.2,0.,1.2,0.,1.2
1980-11-14 09:09:23.200 ,0,0,0.,1.2,6.,1.2,0.,1.2,0.,1.2
1980-11-14 09:09:24.400 ,0,0,0.,1.2,8.,1.2,0.,1.2,0.,1.2
1980-11-14 09:09:25.600 ,0,0,0.,1.2,5.,1.2,0.,1.2,0.,1.2
1980-11-14 09:09:26.800 ,0,0,0.,1.2,9.,1.2,0.,1.2,0.,1.2
1980-11-14 09:09:28.000 ,0,0,0.,1.2,10.,1.2,0.,1.2,0.,1.2
1980-11-14 09:09:29.200 ,0,0,1.,1.2,6.,1.2,0.,1.2,0.,1.2
1980-11-14 09:09:23.800 ,2,0,0.,1.2,8.,1.2,0.,1.2,0.,1.2
1980-11-14 09:09:25.000 ,2,0,1.,1.2,5.,1.2,0.,1.2,0.,1.2
1980-11-14 09:09:26.200 ,2,0,0.,1.2,9.,1.2,0.,1.2,0.,1.2
1980-11-14 09:09:27.400 ,2,0,0.,1.2,10.,1.2,0.,1.2,0.,1.2
1980-11-14 09:09:28.600 ,2,0,0.,1.2,6.,1.2,0.,1.2,0.,1.2
1980-11-14 09:09:29.800 ,2,0,0.,1.2,27.,1.2,0.,1.2,0.,1.2
1980-11-14 09:09:31.000 ,2,0,0.,1.2,9.,1.2,0.,1.2,0.,1.2
1980-11-14 09:09:32.200 ,2,0,0.,1.2,7.,1.2,0.,1.2,0.,1.2
1980-11-14 09:09:33.400 ,2,0,0.,1.2,9.,1.2,0.,1.2,0.,1.2
1980-11-14 09:09:34.600 ,2,0,0.,1.2,9.,1.2,0.,1.2,0.,1.2
1980-11-14 09:09:35.800 ,2,0,0.,1.2,4.,1.2,0.,1.2,0.,1.2
1980-11-14 09:09:37.000 ,2,0,0.,1.2,9.,1.2,0.,1.2,0.,1.2
1980-11-14 09:09:38.200 ,2,0,0.,1.2,6.,1.2,0.,1.2,0.,1.2
1980-11-14 09:09:39.400 ,2,0,1.,1.2,4.,1.2,0.,1.2,0.,1.2
1980-11-14 09:09:40.600 ,2,0,0.,1.2,8.,1.2,0.,1.2,0.,1.2
1980-11-14 09:09:41.800 ,2,0,0.,1.2,6.,1.2,0.,1.2,0.,1.2
1980-11-14 09:09:43.000 ,2,0,0.,1.2,5.,1.2,0.,1.2,0.,1.2
1980-11-14 09:09:44.200 ,2,0,0.,1.2,10.,1.2,0.,1.2,0.,1.2
1980-11-14 09:09:45.400 ,2,0,0.,1.2,7.,1.2,0.,1.2,0.,1.2
1980-11-14 09:09:46.600 ,2,0,0.,1.2,5.,1.2,0.,1.2,0.,1.2
1980-11-14 09:09:47.800 ,2,0,0.,1.2,13.,1.2,0.,1.2,0.,1.2
1980-11-14 09:09:49.000 ,2,0,1.,1.2,9.,1.2,0.,1.2,0.,1.2
1980-11-14 09:09:50.200 ,2,0,0.,1.2,8.,1.2,0.,1.2,0.,1.2
1980-11-14 09:09:51.400 ,2,0,0.,1.2,6.,1.2,0.,1.2,0.,1.2
1980-11-14 09:09:52.600 ,2,0,0.,1.2,7.,1.2,0.,1.2,0.,1.2
1980-11-14 09:09:53.800 ,2,0,0.,1.2,6.,1.2,0.,1.2,0.,1.2
1980-11-14 09:09:55.000 ,2,0,1.,1.2,10.,1.2,0.,1.2,0.,1.2
1980-11-14 09:09:56.200 ,2,0,0.,1.2,11.,1.2,0.,1.2,0.,1.2
1980-11-14 09:09:57.400 ,2,0,0.,1.2,7.,1.2,0.,1.2,0.,1.2
1980-11-14 09:09:58.600 ,2,0,0.,1.2,4.,1.2,0.,1.2,0.,1.2
1980-11-14 09:09:59.800 ,2,0,0.,1.2,11.,1.2,0.,1.2,0.,1.2
1980-11-14 09:10:01.000 ,2,0,1.,1.2,7.,1.2,0.,1.2,0.,1.2
1980-11-14 09:10:02.200 ,2,0,0.,1.2,7.,1.2,0.,1.2,0.,1.2
1980-11-14 09:10:03.400 ,2,0,0.,1.2,5.,1.2,0.,1.2,0.,1.2
1980-11-14 09:10:04.600 ,2,0,0.,1.2,10.,1.2,0.,1.2,0.,1.2
1980-11-14 09:10:05.800 ,2,0,0.,1.2,12.,1.2,0.,1.2,0.,1.2
1980-11-14 09:10:07.000 ,2,0,0.,1.2,5.,1.2,0.,1.2,0.,1.2
1980-11-14 09:10:08.200 ,2,0,1.,1.2,8.,1.2,0.,1.2,0.,1.2
1980-11-14 09:10:09.400 ,2,0,1.,1.2,4.,1.2,0.,1.2,0.,1.2
1980-11-14 09:10:10.600 ,2,0,0.,1.2,7.,1.2,0.,1.2,0.,1.2
1980-11-14 09:10:11.800 ,3,0,0.,1.2,6.,1.2,0.,1.2,0.,1.2
1980-11-14 09:10:13.000 ,3,0,0.,1.2,6.,1.2,0.,1.2,0.,1.2
1980-11-14 09:10:14.200 ,3,0,1.,1.2,8.,1.2,0.,1.2,0.,1.2
1980-11-14 09:10:15.400 ,3,0,0.,1.2,9.,1.2,0.,1.2,0.,1.2
1980-11-14 09:10:16.600 ,3,0,1.,1.2,5.,1.2,0.,1.2,0.,1.2
1980-11-14 09:10:17.800 ,3,0,0.,1.2,18.,1.2,0.,1.2,0.,1.2
1980-11-14 09:10:19.000 ,3,0,0.,1.2,3.,1.2,0.,1.2,0.,1.2
1980-11-14 09:10:20.200 ,3,0,0.,1.2,4.,1.2,0.,1.2,0.,1.2
1980-11-14 09:10:21.400 ,3,0,0.,1.2,6.,1.2,0.,1.2,0.,1.2
1980-11-14 09:10:22.600 ,3,0,0.,1.2,8.,1.2,0.,1.2,0.,1.2
1980-11-14 09:10:23.800 ,3,0,0.,1.2,4.,1.2,0.,1.2,0.,1.2
1980-11-14 09:10:25.000 ,3,0,0.,1.2,9.,1.2,0.,1.2,0.,1.2
1980-11-14 09:10:26.200 ,3,0,0.,1.2,8.,1.2,0.,1.2,0.,1.2
1980-11-14 09:10:27.400 ,3,0,0.,1.2,6.,1.2,0.,1.2,0.,1.2
1980-11-14 09:10:28.600 ,3,0,0.,1.2,3.,1.2,0.,1.2,0.,1.2
1980-11-14 09:10:29.800 ,3,0,0.,1.2,5.,1.2,0.,1.2,0.,1.2
1980-11-14 09:10:31.000 ,3,0,0.,1.2,6.,1.2,0.,1.2,0.,1.2
1980-11-14 09:10:32.200 ,3,0,0.,1.2,10.,1.2,0.,1.2,0.,1.2
1980-11-14 09:10:33.400 ,3,0,0.,1.2,7.,1.2,0.,1.2,0.,1.2
1980-11-14 09:10:34.600 ,3,0,0.,1.2,5.,1.2,0.,1.2,0.,1.2
1980-11-14 09:10:35.800 ,3,0,1.,1.2,6.,1.2,0.,1.2,0.,1.2
1980-11-14 09:10:37.000 ,3,0,0.,1.2,6.,1.2,0.,1.2,0.,1.2
1980-11-14 09:10:38.200 ,3,0,0.,1.2,5.,1.2,1.,1.2,0.,1.2
1980-11-14 09:10:39.400 ,3,0,1.,1.2,8.,1.2,0.,1.2,0.,1.2
1980-11-14 09:10:40.600 ,3,0,0.,1.2,4.,1.2,0.,1.2,0.,1.2
1980-11-14 09:10:41.800 ,3,0,1.,1.2,5.,1.2,0.,1.2,0.,1.2
1980-11-14 09:10:43.000 ,3,0,0.,1.2,7.,1.2,0.,1.2,0.,1.2
1980-11-14 09:10:44.200 ,3,0,2.,1.2,9.,1.2,0.,1.2,0.,1.2
1980-11-14 09:10:45.400 ,3,0,0.,1.2,9.,1.2,0.,1.2,0.,1.2
1980-11-14 09:10:46.600 ,3,0,1.,1.2,3.,1.2,0.,1.2,0.,1.2
1980-11-14 09:10:47.800 ,3,0,1.,1.2,7.,1.2,0.,1.2,0.,1.2
1980-11-14 09:10:49.000 ,3,0,0.,1.2,4.,1.2,0.,1.2,0.,1.2
1980-11-14 09:10:50.200 ,3,0,0.,1.2,7.,1.2,0.,1.2,0.,1.2
1980-11-14 09:10:51.400 ,3,0,0.,1.2,8.,1.2,0.,1.2,0.,1.2
1980-11-14 09:10:52.600 ,3,0,0.,1.2,7.,1.2,0.,1.2,0.,1.2
1980-11-14 09:10:53.800 ,3,0,0.,1.2,3.,1.2,0.,1.2,0.,1.2
1980-11-14 09:10:55.000 ,3,0,0.,1.2,5.,1.2,0.,1.2,0.,1.2
1980-11-14 09:10:56.200 ,3,0,1.,1.2,10.,1.2,0.,1.2,1.,1.2
1980-11-14 09:10:57.400 ,3,0,0.,1.2,10.,1.2,0.,1.2,0.,1.2
1980-11-14 09:10:58.600 ,3,0,1.,1.2,5.,1.2,0.,1.2,0.,1.2
1980-11-14 09:10:59.800 ,4,0,1.,1.2,11.,1.2,0.,1.2,0.,1.2
1980-11-14 09:11:01.000 ,4,0,0.,1.2,4.,1.2,0.,1.2,0.,1.2
1980-11-14 09:11:02.200 ,4,0,0.,1.2,6.,1.2,0.,1.2,0.,1.2
1980-11-14 09:11:03.400 ,4,0,0.,1.2,8.,1.2,0.,1.2,0.,1.2
1980-11-14 09:11:04.600 ,4,0,0.,1.2,7.,1.2,0.,1.2,0.,1.2
1980-11-14 09:11:05.800 ,4,0,1.,1.2,53.,1.2,0.,1.2,0.,1.2
1980-11-14 09:11:07.000 ,4,0,0.,1.2,5.,1.2,0.,1.2,0.,1.2
1980-11-14 09:11:08.200 ,4,0,0.,1.2,7.,1.2,0.,1.2,0.,1.2
1980-11-14 09:11:09.400 ,4,0,0.,1.2,4.,1.2,0.,1.2,0.,1.2
1980-11-14 09:11:10.600 ,4,0,1.,1.2,9.,1.2,0.,1.2,0.,1.2
1980-11-14 09:11:11.800 ,4,0,0.,1.2,6.,1.2,0.,1.2,0.,1.2
1980-11-14 09:11:13.000 ,4,0,0.,1.2,11.,1.2,0.,1.2,0.,1.2
1980-11-14 09:11:14.200 ,4,0,0.,1.2,6.,1.2,0.,1.2,0.,1.2
1980-11-14 09:11:15.400 ,4,0,0.,1.2,12.,1.2,0.,1.2,0.,1.2
1980-11-14 09:11:16.600 ,4,0,0.,1.2,8.,1.2,0.,1.2,0.,1.2
1980-11-14 09:11:17.800 ,4,0,0.,1.2,13.,1.2,0.,1.2,0.,1.2
1980-11-14 09:11:19.000 ,4,0,0.,1.2,5.,1.2,0.,1.2,0.,1.2
1980-11-14 09:11:20.200 ,4,0,1.,1.2,9.,1.2,0.,1.2,0.,1.2
1980-11-14 09:11:21.400 ,4,0,0.,1.2,10.,1.2,0.,1.2,0.,1.2
1980-11-14 09:11:22.600 ,4,0,2.,1.2,7.,1.2,0.,1.2,0.,1.2
1980-11-14 09:11:23.800 ,4,0,0.,1.2,11.,1.2,0.,1.2,0.,1.2
1980-11-14 09:11:25.000 ,4,0,1.,1.2,11.,1.2,0.,1.2,0.,1.2
1980-11-14 09:11:26.200 ,4,0,0.,1.2,7.,1.2,0.,1.2,0.,1.2
1980-11-14 09:11:27.400 ,4,0,0.,1.2,10.,1.2,0.,1.2,0.,1.2
1980-11-14 09:11:28.600 ,4,0,1.,1.2,8.,1.2,0.,1.2,0.,1.2
1980-11-14 09:11:29.800 ,4,0,0.,1.2,2.,1.2,0.,1.2,0.,1.2
1980-11-14 09:11:31.000 ,4,0,2.,1.2,6.,1.2,0.,1.2,0.,1.2
1980-11-14 09:11:32.200 ,4,0,0.,1.2,7.,1.2,0.,1.2,0.,1.2
1980-11-14 09:11:33.400 ,4,0,0.,1.2,10.,1.2,0.,1.2,0.,1.2
1980-11-14 09:11:34.600 ,4,0,0.,1.2,9.,1.2,0.,1.2,0.,1.2
1980-11-14 09:11:35.800 ,4,0,0.,1.2,6.,1.2,0.,1.2,0.,1.2
1980-11-14 09:11:37.000 ,4,0,0.,1.2,6.,1.2,0.,1.2,0.,1.2
1980-11-14 09:11:38.200 ,4,0,0.,1.2,6.,1.2,0.,1.2,0.,1.2
1980-11-14 09:11:39.400 ,4,0,0.,1.2,8.,1.2,0.,1.2,0.,1.2
1980-11-14 09:11:40.600 ,4,0,0.,1.2,5.,1.2,0.,1.2,0.,1.2
1980-11-14 09:11:41.800 ,4,0,0.,1.2,5.,1.2,0.,1.2,0.,1.2
1980-11-14 09:11:43.000 ,4,0,0.,1.2,6.,1.2,0.,1.2,0.,1.2
1980-11-14 09:11:44.200 ,4,0,1.,1.2,12.,1.2,0.,1.2,0.,1.2
1980-11-14 09:11:45.400 ,4,0,0.,1.2,5.,1.2,0.,1.2,0.,1.2
1980-11-14 09:11:46.600 ,4,0,0.,1.2,5.,1.2,0.,1.2,0.,1.2
1980-11-14 09:11:47.800 ,5,0,0.,1.2,11.,1.2,0.,1.2,0.,1.2
1980-11-14 09:11:49.000 ,5,0,0.,1.2,4.,1.2,0.,1.2,0.,1.2
1980-11-14 09:11:50.200 ,5,0,0.,1.2,7.,1.2,0.,1.2,0.,1.2
1980-11-14 09:11:51.400 ,5,0,2.,1.2,9.,1.2,0.,1.2,0.,1.2
1980-11-14 09:11:52.600 ,5,0,0.,1.2,6.,1.2,0.,1.2,0.,1.2
1980-11-14 09:11:53.800 ,5,0,0.,1.2,30.,1.2,0.,1.2,0.,1.2
1980-11-14 09:11:55.000 ,5,0,0.,1.2,11.,1.2,0.,1.2,0.,1.2
1980-11-14 09:11:56.200 ,5,0,1.,1.2,10.,1.2,0.,1.2,0.,1.2
1980-11-14 09:11:57.400 ,5,0,1.,1.2,8.,1.2,0.,1.2,0.,1.2
1980-11-14 09:11:58.600 ,5,0,0.,1.2,5.,1.2,0.,1.2,0.,1.2
1980-11-14 09:11:59.800 ,5,0,0.,1.2,8.,1.2,0.,1.2,0.,1.2
1980-11-14 09:12:01.000 ,5,0,0.,1.2,7.,1.2,0.,1.2,0.,1.2
1980-11-14 09:12:02.200 ,5,0,1.,1.2,7.,1.2,0.,1.2,0.,1.2
1980-11-14 09:12:03.400 ,5,0,0.,1.2,7.,1.2,0.,1.2,0.,1.2
1980-11-14 09:12:04.600 ,5,0,0.,1.2,8.,1.2,0.,1.2,0.,1.2
1980-11-14 09:12:05.800 ,5,0,0.,1.2,12.,1.2,0.,1.2,0.,1.2
1980-11-14 09:12:07.000 ,5,0,1.,1.2,14.,1.2,0.,1.2,0.,1.2
1980-11-14 09:12:08.200 ,5,0,1.,1.2,15.,1.2,0.,1.2,0.,1.2
1980-11-14 09:12:09.400 ,5,0,2.,1.2,7.,1.2,0.,1.2,0.,1.2
1980-11-14 09:12:10.600 ,5,0,2.,1.2,8.,1.2,0.,1.2,0.,1.2
1980-11-14 09:12:11.800 ,5,0,0.,1.2,10.,1.2,0.,1.2,0.,1.2
1980-11-14 09:12:13.000 ,5,0,0.,1.2,5.,1.2,0.,1.2,0.,1.2
1980-11-14 09:12:14.200 ,5,0,0.,1.2,11.,1.2,0.,1.2,0.,1.2
1980-11-14 09:12:15.400 ,5,0,0.,1.2,6.,1.2,0.,1.2,0.,1.2
1980-11-14 09:12:16.600 ,5,0,0.,1.2,7.,1.2,0.,1.2,0.,1.2
1980-11-14 09:12:17.800 ,5,0,0.,1.2,7.,1.2,0.,1.2,0.,1.2
1980-11-14 09:12:19.000 ,5,0,0.,1.2,5.,1.2,0.,1.2,0.,1.2
1980-11-14 09:12:20.200 ,5,0,0.,1.2,6.,1.2,0.,1.2,0.,1.2
1980-11-14 09:12:21.400 ,5,0,0.,1.2,10.,1.2,0.,1.2,0.,1.2
1980-11-14 09:12:22.600 ,5,0,0.,1.2,9.,1.2,0.,1.2,0.,1.2
1980-11-14 09:12:23.800 ,5,0,0.,1.2,7.,1.2,0.,1.2,0.,1.2
1980-11-14 09:12:25.000 ,5,0,2.,1.2,6.,1.2,0.,1.2,0.,1.2
1980-11-14 09:12:26.200 ,5,0,1.,1.2,13.,1.2,0.,1.2,0.,1.2
1980-11-14 09:12:27.400 ,5,0,0.,1.2,11.,1.2,0.,1.2,0.,1.2
1980-11-14 09:12:28.600 ,5,0,0.,1.2,10.,1.2,0.,1.2,0.,1.2
1980-11-14 09:12:29.800 ,5,0,1.,1.2,7.,1.2,0.,1.2,0.,1.2
1980-11-14 09:12:31.000 ,5,0,1.,1.2,5.,1.2,0.,1.2,0.,1.2
1980-11-14 09:12:32.200 ,5,0,0.,1.2,5.,1.2,0.,1.2,0.,1.2
1980-11-14 09:12:33.400 ,5,0,0.,1.2,6.,1.2,0.,1.2,0.,1.2
1980-11-14 09:12:34.600 ,5,0,0.,1.2,13.,1.2,0.,1.2,0.,1.2
1980-11-14 09:12:35.800 ,6,0,0.,1.2,9.,1.2,0.,1.2,0.,1.2
1980-11-14 09:12:37.000 ,6,0,0.,1.2,5.,1.2,0.,1.2,0.,1.2
1980-11-14 09:12:38.200 ,6,0,0.,1.2,4.,1.2,0.,1.2,0.,1.2
1980-11-14 09:12:39.400 ,6,0,0.,1.2,11.,1.2,0.,1.2,0.,1.2
1980-11-14 09:12:40.600 ,6,0,0.,1.2,9.,1.2,0.,1.2,0.,1.2
1980-11-14 09:12:41.800 ,6,0,0.,1.2,23.,1.2,0.,1.2,0.,1.2
1980-11-14 09:12:43.000 ,6,0,1.,1.2,9.,1.2,0.,1.2,0.,1.2
1980-11-14 09:12:44.200 ,6,0,1.,1.2,15.,1.2,0.,1.2,0.,1.2
1980-11-14 09:12:45.400 ,6,0,0.,1.2,12.,1.2,0.,1.2,0.,1.2
1980-11-14 09:12:46.600 ,6,0,0.,1.2,10.,1.2,0.,1.2,0.,1.2
1980-11-14 09:12:47.800 ,6,0,0.,1.2,11.,1.2,0.,1.2,0.,1.2
1980-11-14 09:12:49.000 ,6,0,0.,1.2,17.,1.2,0.,1.2,0.,1.2
1980-11-14 09:12:50.200 ,6,0,0.,1.2,8.,1.2,1.,1.2,0.,1.2
1980-11-14 09:12:51.400 ,6,0,0.,1.2,10.,1.2,0.,1.2,0.,1.2
1980-11-14 09:12:52.600 ,6,0,0.,1.2,7.,1.2,0.,1.2,0.,1.2
1980-11-14 09:12:53.800 ,6,0,0.,1.2,8.,1.2,0.,1.2,0.,1.2
1980-11-14 09:12:55.000 ,6,0,0.,1.2,8.,1.2,0.,1.2,0.,1.2
1980-11-14 09:12:56.200 ,6,0,0.,1.2,8.,1.2,0.,1.2,0.,1.2
1980-11-14 09:12:57.400 ,6,0,0.,1.2,10.,1.2,0.,1.2,0.,1.2
1980-11-14 09:12:58.600 ,6,0,1.,1.2,7.,1.2,0.,1.2,0.,1.2
1980-11-14 09:12:59.800 ,6,0,0.,1.2,13.,1.2,0.,1.2,0.,1.2
1980-11-14 09:13:01.000 ,6,0,0.,1.2,7.,1.2,0.,1.2,0.,1.2
1980-11-14 09:13:02.200 ,6,0,0.,1.2,15.,1.2,0.,1.2,0.,1.2
1980-11-14 09:13:03.400 ,6,0,0.,1.2,6.,1.2,0.,1.2,0.,1.2
1980-11-14 09:13:04.600 ,6,0,1.,1.2,4.,1.2,0.,1.2,0.,1.2
1980-11-14 09:13:05.800 ,6,0,1.,1.2,7.,1.2,0.,1.2,0.,1.2
1980-11-14 09:13:07.000 ,6,0,0.,1.2,9.,1.2,0.,1.2,0.,1.2
1980-11-14 09:13:08.200 ,6,0,0.,1.2,12.,1.2,0.,1.2,0.,1.2
1980-11-14 09:13:09.400 ,6,0,0.,1.2,6.,1.2,0.,1.2,0.,1.2
1980-11-14 09:13:10.600 ,6,0,0.,1.2,10.,1.2,0.,1.2,0.,1.2
1980-11-14 09:13:11.800 ,6,0,0.,1.2,6.,1.2,0.,1.2,0.,1.2
1980-11-14 09:13:13.000 ,6,0,0.,1.2,9.,1.2,0.,1.2,0.,1.2
1980-11-14 09:13:14.200 ,6,0,0.,1.2,7.,1.2,0.,1.2,0.,1.2
1980-11-14 09:13:15.400 ,6,0,0.,1.2,6.,1.2,0.,1.2,0.,1.2
1980-11-14 09:13:16.600 ,6,0,0.,1.2,6.,1.2,0.,1.2,0.,1.2
1980-11-14 09:13:17.800 ,6,0,0.,1.2,11.,1.2,0.,1.2,0.,1.2
1980-11-14 09:13:19.000 ,6,0,0.,1.2,13.,1.2,0.,1.2,0.,1.2
1980-11-14 09:13:20.200 ,6,0,0.,1.2,8.,1.2,0.,1.2,0.,1.2
1980-11-14 09:13:21.400 ,6,0,0.,1.2,5.,1.2,0.,1.2,0.,1.2
1980-11-14 09:13:22.600 ,6,0,1.,1.2,7.,1.2,0.,1.2,0.,1.2
1980-11-14 09:13:23.800 ,7,0,1.,1.2,10.,1.2,0.,1.2,0.,1.2
1980-11-14 09:13:25.000 ,7,0,0.,1.2,5.,1.2,0.,1.2,0.,1.2
1980-11-14 09:13:26.200 ,7,0,1.,1.2,2.,1.2,0.,1.2,0.,1.2
1980-11-14 09:13:27.400 ,7,0,0.,1.2,7.,1.2,0.,1.2,0.,1.2
1980-11-14 09:13:28.600 ,7,0,1.,1.2,11.,1.2,0.,1.2,0.,1.2
1980-11-14 09:13:29.800 ,7,0,0.,1.2,53.,1.2,1.,1.2,0.,1.2
1980-11-14 09:13:31.000 ,7,0,0.,1.2,10.,1.2,5.,1.2,0.,1.2
1980-11-14 09:13:32.200 ,7,0,0.,1.2,7.,1.2,2.,1.2,0.,1.2
1980-11-14 09:13:33.400 ,7,0,0.,1.2,8.,1.2,1.,1.2,0.,1.2
1980-11-14 09:13:34.600 ,7,0,0.,1.2,12.,1.2,5.,1.2,0.,1.2
1980-11-14 09:13:35.800 ,7,0,0.,1.2,7.,1.2,3.,1.2,0.,1.2
1980-11-14 09:13:37.000 ,7,0,0.,1.2,8.,1.2,9.,1.2,0.,1.2
1980-11-14 09:13:38.200 ,7,0,0.,1.2,9.,1.2,3.,1.2,0.,1.2
1980-11-14 09:13:39.400 ,7,0,0.,1.2,7.,1.2,6.,1.2,0.,1.2
1980-11-14 09:13:40.600 ,7,0,0.,1.2,6.,1.2,4.,1.2,0.,1.2
1980-11-14 09:13:41.800 ,7,0,0.,1.2,5.,1.2,0.,1.2,0.,1.2
1980-11-14 09:13:43.000 ,7,0,0.,1.2,6.,1.2,7.,1.2,0.,1.2
1980-11-14 09:13:44.200 ,7,0,0.,1.2,11.,1.2,5.,1.2,0.,1.2
1980-11-14 09:13:45.400 ,7,0,0.,1.2,3.,1.2,3.,1.2,0.,1.2
1980-11-14 09:13:46.600 ,7,0,0.,1.2,11.,1.2,6.,1.2,0.,1.2
1980-11-14 09:13:47.800 ,7,0,0.,1.2,8.,1.2,4.,1.2,0.,1.2
1980-11-14 09:13:49.000 ,7,0,0.,1.2,8.,1.2,3.,1.2,0.,1.2
1980-11-14 09:13:50.200 ,7,0,0.,1.2,3.,1.2,5.,1.2,0.,1.2
1980-11-14 09:13:51.400 ,7,0,1.,1.2,8.,1.2,1.,1.2,0.,1.2
1980-11-14 09:13:52.600 ,7,0,0.,1.2,8.,1.2,4.,1.2,0.,1.2
1980-11-14 09:13:53.800 ,7,0,0.,1.2,3.,1.2,1.,1.2,0.,1.2
1980-11-14 09:13:55.000 ,7,0,0.,1.2,9.,1.2,4.,1.2,0.,1.2
1980-11-14 09:13:56.200 ,7,0,0.,1.2,12.,1.2,3.,1.2,0.,1.2
1980-11-14 09:13:57.400 ,7,0,0.,1.2,7.,1.2,2.,1.2,0.,1.2
1980-11-14 09:13:58.600 ,7,0,0.,1.2,8.,1.2,3.,1.2,0.,1.2
1980-11-14 09:13:59.800 ,7,0,0.,1.2,9.,1.2,3.,1.2,0.,1.2
1980-11-14 09:14:01.000 ,7,0,0.,1.2,13.,1.2,3.,1.2,0.,1.2
1980-11-14 09:14:02.200 ,7,0,0.,1.2,10.,1.2,4.,1.2,0.,1.2
1980-11-14 09:14:03.400 ,7,0,0.,1.2,6.,1.2,3.,1.2,0.,1.2
1980-11-14 09:14:04.600 ,7,0,0.,1.2,11.,1.2,6.,1.2,0.,1.2
1980-11-14 09:14:05.800 ,7,0,0.,1.2,6.,1.2,5.,1.2,0.,1.2
1980-11-14 09:14:07.000 ,7,0,0.,1.2,7.,1.2,4.,1.2,0.,1.2
1980-11-14 09:14:08.200 ,7,0,0.,1.2,9.,1.2,5.,1.2,0.,1.2
1980-11-14 09:14:09.400 ,7,0,0.,1.2,6.,1.2,3.,1.2,0.,1.2
1980-11-14 09:14:10.600 ,7,0,0.,1.2,7.,1.2,2.,1.2,0.,1.2
1980-11-14 09:14:11.800 ,7,0,0.,1.2,8.,1.2,5.,1.2,0.,1.2
1980-11-14 09:14:13.000 ,7,0,0.,1.2,10.,1.2,5.,1.2,0.,1.2
1980-11-14 09:14:14.200 ,7,0,0.,1.2,15.,1.2,7.,1.2,0.,1.2
1980-11-14 09:14:15.400 ,7,0,0.,1.2,12.,1.2,5.,1.2,0.,1.2
1980-11-14 09:14:16.600 ,7,0,0.,1.2,8.,1.2,4.,1.2,0.,1.2
1980-11-14 09:14:17.800 ,7,0,0.,1.2,9.,1.2,5.,1.2,0.,1.2
1980-11-14 09:14:19.000 ,7,0,0.,1.2,10.,1.2,4.,1.2,0.,1.2
1980-11-14 09:14:20.200 ,7,0,0.,1.2,5.,1.2,5.,1.2,0.,1.2
1980-11-14 09:14:21.400 ,7,0,0.,1.2,13.,1.2,4.,1.2,0.,1.2
1980-11-14 09:14:22.600 ,7,0,0.,1.2,9.,1.2,6.,1.2,0.,1.2
1980-11-14 09:14:23.800 ,7,0,0.,1.2,6.,1.2,6.,1.2,0.,1.2
1980-11-14 09:14:25.000 ,7,0,0.,1.2,11.,1.2,1.,1.2,0.,1.2
1980-11-14 09:14:26.200 ,7,0,0.,1.2,13.,1.2,6.,1.2,0.,1.2
1980-11-14 09:14:27.400 ,7,0,0.,1.2,8.,1.2,9.,1.2,0.,1.2
1980-11-14 09:14:28.600 ,7,0,0.,1.2,13.,1.2,8.,1.2,0.,1.2
1980-11-14 09:14:29.800 ,7,0,0.,1.2,11.,1.2,5.,1.2,0.,1.2
1980-11-14 09:14:31.000 ,7,0,0.,1.2,7.,1.2,10.,1.2,0.,1.2
1980-11-14 09:14:32.200 ,7,0,0.,1.2,9.,1.2,5.,1.2,0.,1.2
1980-11-14 09:14:33.400 ,7,0,0.,1.2,13.,1.2,5.,1.2,0.,1.2
1980-11-14 09:14:34.600 ,7,0,0.,1.2,11.,1.2,4.,1.2,0.,1.2
1980-11-14 09:14:35.800 ,7,0,0.,1.2,13.,1.2,2.,1.2,0.,1.2
1980-11-14 09:14:37.000 ,7,0,0.,1.2,9.,1.2,7.,1.2,0.,1.2
1980-11-14 09:14:38.200 ,7,0,0.,1.2,10.,1.2,4.,1.2,0.,1.2
1980-11-14 09:14:39.400 ,7,0,0.,1.2,8.,1.2,3.,1.2,0.,1.2
1980-11-14 09:14:40.600 ,7,0,0.,1.2,12.,1.2,3.,1.2,0.,1.2
1980-11-14 09:14:41.800 ,7,0,0.,1.2,10.,1.2,5.,1.2,0.,1.2
1980-11-14 09:14:43.000 ,7,0,0.,1.2,10.,1.2,3.,1.2,0.,1.2
1980-11-14 09:14:44.200 ,7,0,0.,1.2,7.,1.2,6.,1.2,0.,1.2
1980-11-14 09:14:45.400 ,7,0,0.,1.2,12.,1.2,2.,1.2,0.,1.2
1980-11-14 09:14:46.600 ,7,0,0.,1.2,10.,1.2,5.,1.2,0.,1.2
1980-11-14 09:14:47.800 ,7,0,0.,1.2,7.,1.2,2.,1.2,0.,1.2
1980-11-14 09:14:49.000 ,7,0,0.,1.2,6.,1.2,10.,1.2,0.,1.2
1980-11-14 09:14:50.200 ,7,0,0.,1.2,7.,1.2,2.,1.2,0.,1.2
1980-11-14 09:14:51.400 ,7,0,0.,1.2,9.,1.2,5.,1.2,0.,1.2
1980-11-14 09:14:52.600 ,7,0,0.,1.2,8.,1.2,5.,1.2,0.,1.2
1980-11-14 09:14:53.800 ,7,0,0.,1.2,10.,1.2,3.,1.2,0.,1.2
1980-11-14 09:14:55.000 ,7,0,0.,1.2,6.,1.2,6.,1.2,0.,1.2
1980-11-14 09:14:56.200 ,7,0,0.,1.2,12.,1.2,2.,1.2,0.,1.2
1980-11-14 09:14:57.400 ,7,0,0.,1.2,10.,1.2,3.,1.2,0.,1.2
1980-11-14 09:14:58.600 ,7,0,0.,1.2,6.,1.2,4.,1.2,0.,1.2
1980-11-14 09:14:59.800 ,6,0,0.,1.2,14.,1.2,2.,1.2,0.,1.2
1980-11-14 09:15:01.000 ,6,0,0.,1.2,8.,1.2,3.,1.2,0.,1.2
1980-11-14 09:15:02.200 ,6,0,0.,1.2,11.,1.2,7.,1.2,0.,1.2
1980-11-14 09:15:03.400 ,6,0,0.,1.2,6.,1.2,5.,1.2,0.,1.2
1980-11-14 09:15:04.600 ,6,0,0.,1.2,16.,1.2,5.,1.2,0.,1.2
1980-11-14 09:15:05.800 ,6,0,0.,1.2,31.,1.2,1.,1.2,0.,1.2
1980-11-14 09:15:07.000 ,6,0,0.,1.2,12.,1.2,0.,1.2,0.,1.2
1980-11-14 09:15:08.200 ,6,0,0.,1.2,8.,1.2,0.,1.2,0.,1.2
1980-11-14 09:15:09.400 ,6,0,0.,1.2,6.,1.2,0.,1.2,0.,1.2
1980-11-14 09:15:10.600 ,6,0,0.,1.2,7.,1.2,0.,1.2,0.,1.2
1980-11-14 09:15:11.800 ,6,0,0.,1.2,13.,1.2,0.,1.2,0.,1.2
1980-11-14 09:15:13.000 ,6,0,0.,1.2,6.,1.2,0.,1.2,1.,1.2
1980-11-14 09:15:14.200 ,6,0,0.,1.2,8.,1.2,0.,1.2,0.,1.2
1980-11-14 09:15:15.400 ,6,0,0.,1.2,4.,1.2,0.,1.2,0.,1.2
1980-11-14 09:15:16.600 ,6,0,0.,1.2,8.,1.2,0.,1.2,0.,1.2
1980-11-14 09:15:17.800 ,6,0,0.,1.2,9.,1.2,0.,1.2,0.,1.2
1980-11-14 09:15:19.000 ,6,0,0.,1.2,9.,1.2,0.,1.2,0.,1.2
1980-11-14 09:15:20.200 ,6,0,0.,1.2,13.,1.2,0.,1.2,0.,1.2
1980-11-14 09:15:21.400 ,6,0,0.,1.2,4.,1.2,0.,1.2,0.,1.2
1980-11-14 09:15:22.600 ,6,0,0.,1.2,7.,1.2,0.,1.2,0.,1.2
1980-11-14 09:15:23.800 ,6,0,0.,1.2,6.,1.2,0.,1.2,0.,1.2
1980-11-14 09:15:25.000 ,6,0,0.,1.2,6.,1.2,0.,1.2,0.,1.2
1980-11-14 09:15:26.200 ,6,0,0.,1.2,7.,1.2,0.,1.2,0.,1.2
1980-11-14 09:15:27.400 ,6,0,1.,1.2,6.,1.2,0.,1.2,0.,1.2
1980-11-14 09:15:28.600 ,6,0,0.,1.2,4.,1.2,0.,1.2,0.,1.2
1980-11-14 09:15:29.800 ,6,0,0.,1.2,13.,1.2,0.,1.2,0.,1.2
1980-11-14 09:15:31.000 ,6,0,1.,1.2,7.,1.2,0.,1.2,0.,1.2
1980-11-14 09:15:32.200 ,6,0,2.,1.2,12.,1.2,0.,1.2,0.,1.2
1980-11-14 09:15:33.400 ,6,0,0.,1.2,8.,1.2,0.,1.2,0.,1.2
1980-11-14 09:15:34.600 ,6,0,0.,1.2,4.,1.2,0.,1.2,0.,1.2
1980-11-14 09:15:35.800 ,6,0,1.,1.2,10.,1.2,0.,1.2,0.,1.2
1980-11-14 09:15:37.000 ,6,0,0.,1.2,11.,1.2,0.,1.2,0.,1.2
1980-11-14 09:15:38.200 ,6,0,1.,1.2,6.,1.2,0.,1.2,0.,1.2
1980-11-14 09:15:39.400 ,6,0,1.,1.2,10.,1.2,0.,1.2,0.,1.2
1980-11-14 09:15:40.600 ,6,0,0.,1.2,15.,1.2,0.,1.2,0.,1.2
1980-11-14 09:15:41.800 ,6,0,0.,1.2,8.,1.2,0.,1.2,0.,1.2
1980-11-14 09:15:43.000 ,6,0,0.,1.2,5.,1.2,0.,1.2,0.,1.2
1980-11-14 09:15:44.200 ,6,0,0.,1.2,7.,1.2,0.,1.2,0.,1.2
1980-11-14 09:15:45.400 ,6,0,1.,1.2,10.,1.2,0.,1.2,0.,1.2
1980-11-14 09:15:46.600 ,6,0,0.,1.2,10.,1.2,0.,1.2,0.,1.2
1980-11-14 09:15:47.800 ,5,0,0.,1.2,10.,1.2,0.,1.2,0.,1.2
1980-11-14 09:15:49.000 ,5,0,0.,1.2,7.,1.2,0.,1.2,0.,1.2
1980-11-14 09:15:50.200 ,5,0,0.,1.2,7.,1.2,0.,1.2,0.,1.2
1980-11-14 09:15:51.400 ,5,0,0.,1.2,9.,1.2,0.,1.2,0.,1.2
1980-11-14 09:15:52.600 ,5,0,0.,1.2,10.,1.2,0.,1.2,0.,1.2
1980-11-14 09:15:53.800 ,5,0,0.,1.2,31.,1.2,0.,1.2,0.,1.2
1980-11-14 09:15:55.000 ,5,0,0.,1.2,11.,1.2,0.,1.2,0.,1.2
1980-11-14 09:15:56.200 ,5,0,1.,1.2,5.,1.2,0.,1.2,0.,1.2
1980-11-14 09:15:57.400 ,5,0,0.,1.2,10.,1.2,0.,1.2,0.,1.2
1980-11-14 09:15:58.600 ,5,0,2.,1.2,11.,1.2,0.,1.2,1.,1.2
1980-11-14 09:15:59.800 ,5,0,1.,1.2,5.,1.2,0.,1.2,0.,1.2
1980-11-14 09:16:01.000 ,5,0,0.,1.2,3.,1.2,0.,1.2,0.,1.2
1980-11-14 09:16:02.200 ,5,0,1.,1.2,3.,1.2,0.,1.2,0.,1.2
1980-11-14 09:16:03.400 ,5,0,0.,1.2,11.,1.2,0.,1.2,0.,1.2
1980-11-14 09:16:04.600 ,5,0,1.,1.2,4.,1.2,0.,1.2,0.,1.2
1980-11-14 09:16:05.800 ,5,0,0.,1.2,8.,1.2,0.,1.2,0.,1.2
1980-11-14 09:16:07.000 ,5,0,0.,1.2,8.,1.2,0.,1.2,0.,1.2
1980-11-14 09:16:08.200 ,5,0,0.,1.2,11.,1.2,0.,1.2,0.,1.2
1980-11-14 09:16:09.400 ,5,0,0.,1.2,6.,1.2,0.,1.2,0.,1.2
1980-11-14 09:16:10.600 ,5,0,1.,1.2,6.,1.2,0.,1.2,0.,1.2
1980-11-14 09:16:11.800 ,5,0,0.,1.2,5.,1.2,0.,1.2,0.,1.2
1980-11-14 09:16:13.000 ,5,0,0.,1.2,8.,1.2,0.,1.2,0.,1.2
1980-11-14 09:16:14.200 ,5,0,0.,1.2,4.,1.2,0.,1.2,0.,1.2
1980-11-14 09:16:15.400 ,5,0,1.,1.2,14.,1.2,0.,1.2,0.,1.2
1980-11-14 09:16:16.600 ,5,0,0.,1.2,7.,1.2,0.,1.2,0.,1.2
1980-11-14 09:16:17.800 ,5,0,0.,1.2,7.,1.2,0.,1.2,0.,1.2
1980-11-14 09:16:19.000 ,5,0,0.,1.2,7.,1.2,0.,1.2,0.,1.2
1980-11-14 09:16:20.200 ,5,0,0.,1.2,9.,1.2,0.,1.2,0.,1.2
1980-11-14 09:16:21.400 ,5,0,0.,1.2,16.,1.2,0.,1.2,0.,1.2
1980-11-14 09:16:22.600 ,5,0,0.,1.2,12.,1.2,1.,1.2,0.,1.2
1980-11-14 09:16:23.800 ,5,0,0.,1.2,10.,1.2,0.,1.2,0.,1.2
1980-11-14 09:16:25.000 ,5,0,0.,1.2,5.,1.2,0.,1.2,0.,1.2
1980-11-14 09:16:26.200 ,5,0,0.,1.2,6.,1.2,0.,1.2,0.,1.2
1980-11-14 09:16:27.400 ,5,0,0.,1.2,6.,1.2,0.,1.2,0.,1.2
1980-11-14 09:16:28.600 ,5,0,1.,1.2,12.,1.2,0.,1.2,0.,1.2
1980-11-14 09:16:29.800 ,5,0,0.,1.2,5.,1.2,0.,1.2,0.,1.2
1980-11-14 09:16:31.000 ,5,0,0.,1.2,14.,1.2,0.,1.2,0.,1.2
1980-11-14 09:16:32.200 ,5,0,0.,1.2,10.,1.2,0.,1.2,0.,1.2
1980-11-14 09:16:33.400 ,5,0,0.,1.2,8.,1.2,0.,1.2,0.,1.2
1980-11-14 09:16:34.600 ,5,0,0.,1.2,13.,1.2,0.,1.2,1.,1.2
1980-11-14 09:16:35.800 ,4,0,0.,1.2,11.,1.2,0.,1.2,0.,1.2
1980-11-14 09:16:37.000 ,4,0,0.,1.2,6.,1.2,0.,1.2,0.,1.2